P/2007 C2 (Catalina)

Epoch 2007 Sept. 17.0 TT = JDT 2454360.5  

T 2007 Sept. 4.63917 TT                                 Nakano

q   3.7794696            (2000.0)            P               Q

n   0.05289835     Peri.  179.46581     -0.09740226     -0.98388172

a   7.0281546      Node   276.11768     +0.91255927     -0.02815728

e   0.4622387      Incl.    8.67469     +0.39717550     -0.17658973

P  18.63 (+/- 0.01 day)

From 277 observations 2006 Oct. 19-2008 May 3, mean residual 0".59.

Residuals in seconds of arc 

2006/                     070309 703  0.1-  0.2-    080109 H45  0.5+  0.5-  

061019 703  1.0+  0.6-    070312 850  0.6+  0.5+    080109 H45  0.2+  0.5-  

061019 703  0.5+  0.5-    070312 850  0.3-  0.2-    080109 H45  0.2+  0.4-  

061019 703  0.4-  0.3-    070312 215  0.6+  0.3+    080110 H45  0.6+  0.5-  

061019 703  0.1+  0.8-    070919 704  1.3+  0.2-    080110 H45  0.2+  0.5-  

061019 703  0.4-  0.1-    070919 704  0.6-  0.7+    080110 H45  0.2+  0.4-  

061019 703  0.8-  0.3-    070919 704  0.1+  0.5+    080110 H45  0.3+  0.3-  

061019 703  0.1+  0.3-    070919 704  0.1-  0.6-    080110 H45  0.5+  0.3-  

061019 703 (2.3-  1.0+)   071007 G96  0.5+  0.5-    080110 703  0.2-  0.3+  

061114 703 (0.3-  2.3-)   071007 G96  0.7+  0.4-    080110 703  0.4+  0.4+  

061114 703  1.1-  1.2-    071007 G96  0.7+  0.5-    080110 703  0.1-  0.3+  

061114 703  1.0+  1.3-    071007 G96  0.3+  0.4-    080110 703  0.3-  0.9-  

061114 703  1.3-  0.2-    071008 704  0.5+  1.5+    080111 400  1.2-  0.3+  

061115 691  0.1-  0.1+    071008 704 (1.4+  2.4+)   080111 400  0.3-  0.3+  

061115 691  0.2+  0.3-    071008 704  0.0   1.8+    080111 400  1.7-  0.6+  

061115 691  0.0   0.4-    071011 704  0.2+  0.5+    080112 B30  0.8+  1.8-  

061201 G96  0.7+  0.6-    071011 704  0.3+  0.5+    080112 B30 (3.8+  1.6+) 

061201 G96  0.4+  0.6-    071011 704  0.2+  0.5+    080115 H45  0.1-  0.0   

061201 G96  0.9+  0.9-    071011 704  1.1+  0.6+    080115 H45  0.2-  0.3-  

061201 G96  0.2+  0.8-    071011 704  0.6-  0.2-    080115 H45  0.0   0.3-  

2007/                     071013 703  1.1+  0.3-    080115 H45  0.2+  0.3-  

070124 704 (0.4-  3.1-)   071013 703  0.8+  0.2-    080115 H45  0.5+  0.5-  

070124 704  0.4-  1.2+    071013 703  0.3+  0.8-    080116 704  1.5+  0.1-  

070124 704  0.1+  0.9-    071013 703  0.2+  0.4-    080116 704  1.4+  0.9+  

070124 704  1.4+  1.3+    071014 704  0.1+  1.2+    080116 704  0.2+  1.0-  

070209 703  0.6+  0.1+    071014 704  0.4-  0.2+    080116 704  1.3+  0.3-  

070209 703  0.4+  0.3+    071014 704  0.6+  0.5+    080116 704  0.0   0.5-  

070209 703  0.4-  0.5+    071022 704  0.5+  0.1+    080120 J96  0.6+  0.4+  

070209 703  0.3-  0.5+    071022 704  0.3+  1.2+    080120 J96  0.3+  0.2+  

070209 143  0.6+  0.2-    071022 704  0.3-  0.3-    080120 J96 (1.8+  2.6-) 

070209 143  0.3+  0.1-    071022 704  0.5+  0.9+    080126 B49  0.1+  0.2+  

070209 143  0.3+  0.3+    071022 704  0.7+  0.0     080126 B49  1.1-  0.8-  

070209 143  0.2+  0.0     071023 143  0.6-  0.1-    080126 B49  0.3+  0.3-  

070210 H55  0.1+  0.4+    071023 143  0.5-  0.1-    080127 170  0.2+  0.2-  

070210 H55  0.4-  0.2+    071023 143  0.2-  0.1+    080127 170  0.1+  0.4-  

070210 H55  0.5+  0.3-    071103 703 (2.4-  1.1+)   080127 D88  0.3-  0.2+  

070210 D35  0.3+  0.1+    071103 703 (2.0-  0.7+)   080127 D88  0.3+  0.1+  

070210 D35  0.1-  0.2-    071103 703  1.0-  0.5+    080127 D88  0.4+  0.3+  

070210 D35  0.3+  0.4-    071105 704  1.0+  1.1+    080127 J53  1.2+  0.9+  

070211 H55  0.3-  0.3+    071105 704  1.2+  0.8+    080127 J53  0.5+  0.2+  

070211 H55  0.2-  0.2+    071105 704  1.4+  0.0     080127 J53  0.2+  0.0   

070211 H55  0.2+  0.3+    071105 704  1.3+  0.0     080129 B37  0.2+  0.1+  

070211 H55  0.2-  0.5+    071107 703  1.5-  0.8+    080129 B37  0.1+  1.0-  

070211 H36  0.1+  0.2-    071107 703  1.2-  0.9+    080129 204  0.3+  0.1-  

070211 H36  0.0   0.3-    071112 130  0.2-  0.1+    080129 204  0.3+  0.0   

070211 H36  0.1-  0.5-    071112 130  0.1+  0.1+    080130 349  0.0   0.1+  

070211 143  0.8-  0.1-    071204 699  0.3-  0.4+    080130 349  0.1-  0.1-  

070211 473  0.2+  1.1+    071204 699  0.2+  0.3+    080130 349  0.0   0.1+  

070211 143  0.0   0.1+    071204 699  0.6+  0.5+    080202 704  1.4+  0.4+  

070211 473  0.5+  0.2+    071205 349  0.1-  0.0     080202 704  1.7+  0.1+  

070211 595  0.1+  0.2-    071205 349  0.1-  0.0     080202 704  0.1+  0.5-  

070211 143  0.1-  0.0     071205 349  0.0   0.1-    080202 704  0.1+  0.2-  

070211 595  0.2+  0.1+    071206 349  0.5+  0.6-    080202 704  0.9-  0.0   

070211 595  0.1+  0.4+    071206 349  0.4+  0.5-    080204 B49  0.3+  0.4-  

070212 850  0.5-  0.4-    071218 699  1.6-  0.7+    080205 118 (2.7+  1.4-) 

070212 850  0.1-  0.1+    071218 699 (2.6-  1.1+)   080205 118  0.4+  0.8-  

070212 850  0.1+  0.1-    071218 699  1.6-  0.9+    080206 J96  0.2+  0.7-  

070212 850  0.2-  0.1+    071218 699  1.1-  0.4+    080206 J96  0.0   0.5-  

070212 850  0.3-  0.2+    071219 204  0.3-  0.2-    080206 J96  0.1+  0.3-  

070213 104  0.1-  1.2+    071219 204  0.2+  0.1-    080210 G96  1.1-  0.6+  

070213 104  0.1+  0.1+    071229 B09  1.2-  0.4+    080210 G96  1.2-  0.6+  

070213 104  0.0   0.2-    071229 D35  0.3-  0.4+    080210 G96  0.8-  0.2+  

070215 215  0.9+  0.3+    071229 D35  0.2-  0.2+    080210 G96  0.3-  0.2-  

070215 213  0.6-  0.6-    071229 D35  0.2+  0.0     080211 B37  1.2-  0.5-  

070215 213  0.3-  0.0     071230 691 (2.9-  1.0+)   080211 B37  0.0   0.0   

070215 213  0.2+  0.8-    071230 691 (2.6-  0.9+)   080211 B37  0.6+  0.9+  

070216 G96  0.1+  0.3-    071230 691 (2.7-  0.9+)   080211 B37  0.3-  1.5-  

070216 G96  0.2-  0.1-    071230 703  0.2+  0.2+    080222 J96  0.0   0.6-  

070216 G96  0.2+  0.2-    071230 703  1.8-  0.8+    080222 J96  0.1+  0.5-  

070216 G96  0.0   0.2-    071230 703  1.4-  0.9+    080222 J96  0.6-  0.8-  

070217 850  0.3-  0.1-    071230 703 (2.8-  1.0+)   080223 J47  0.3+  0.6+  

070217 850  0.1-  0.0     071230 704  1.0+  1.0+    080223 J47  0.4+  0.5+  

070217 850  0.1-  0.0     071230 704  0.0   0.2+    080224 J47  0.0   0.3+  

070218 349  0.3-  1.0-    071230 704  0.6-  0.6+    080224 204  0.5-  0.1+  

070218 349  0.3+  0.5-    071230 704  0.0   0.2+    080224 204  0.4-  0.0   

070218 246  0.2-  0.1+    071230 704  1.3-  0.4+    080302 J96  0.0   0.1-  

070218 246  0.1+  0.3+    2008/                     080302 J96  0.3-  0.3-  

070218 246  0.1-  0.1+    080101 699 (2.1-  1.5+)   080302 J96  0.4-  0.3-  

070218 246  0.4-  0.4+    080101 699  0.2-  0.4+    080306 118  0.2+  0.3-  

070218 246  0.1+  0.0     080101 699  1.3-  0.2+    080306 118  0.4-  0.1-  

070219 850  0.0   0.2-    080101 699  0.4+  0.6-    080308 118  0.3+  0.3-  

070219 850  0.2+  0.1+    080101 355  0.5-  0.4+    080308 118  0.3+  0.4-  

070219 850  0.2+  0.2+    080101 355  0.5-  0.6+    080323 204  0.1-  0.1-  

070219 G96  0.2+  0.1+    080101 355  0.7-  0.5-    080323 204  0.5+  0.1-  

070219 G96  0.2+  0.1+    080101 355  0.3+  0.0     080325 130  0.3-  1.2-  

070219 G96  0.2+  0.1-    080101 B49  0.3-  0.5-    080325 130  0.7-  0.7-  

070219 G96  0.2+  0.1-    080102 J51  0.4-  1.3+    080325 130  0.3+  0.3-  

070221 G96  0.4+  0.1-    080102 J51  0.2-  0.7+    080331 J47  0.0   0.8+  

070221 G96  0.2+  0.1-    080102 J51  0.2+  0.2-    080331 J47  0.2+  0.6+  

070221 G96  0.1+  0.3-    080102 J47  0.4-  0.2-    080331 J47  0.7-  0.4-  

070221 G96  0.2-  0.2-    080102 J47  0.1-  0.0     080405 704 (2.0+  0.2-) 

070226 703  0.7-  0.9+    080102 J47  0.2-  0.1-    080405 704  0.4-  0.7-  

070226 703  0.7-  0.7+    080103 213 (2.4+  3.4-)   080405 704  0.8+  0.9+  

070226 703  0.8+  1.9+    080103 213 (4.8+  3.7-)   080405 704  1.2+  1.3+  

070226 703  1.8-  1.9+    080104 B42  0.1+  0.4-    080407 215  1.2-  0.9-  

070303 204  0.4-  0.0     080104 B42  1.1+  0.8-    080407 215  1.1-  0.5-  

070303 204  0.8-  0.7+    080104 B42  0.3+  1.0-    080407 215  0.2+  0.4-  

070309 703  0.3+  0.5-    080104 B42  0.4+  0.7-    080503 215  1.4-  0.3+  

070309 703  0.8-  0.0     080109 H45  0.2+  0.6-                            

070309 703  1.5-  0.6-    080109 H45  0.2+  0.6-                            

NAKANO

         **** Don't distribute anyone except personal use only ****

                (C) Copyright 2008 OAA/ComputingSection

write mail from CFAD0::NAKANO on 2008-05-30 05:17:08(JST).

 



    P/2007 C2 (Catalina)

Epoch 2007 Sept. 17.0 TT = JDT 2454360.5  

T 2007 Sept. 4.65659 TT                                 Nakano

q   3.7794791            (2000.0)            P               Q

n   0.05288806     Peri.  179.46811     -0.09745067     -0.98387731

a   7.0290660      Node   276.11820     +0.91255734     -0.02820300

e   0.4623071      Incl.    8.67455     +0.39716805     -0.17660698

P  18.64 (+/- 0.05 day)

From 123 observations 2006 Oct. 19-2007 Oct. 14, mean residual 0".55.

          



NAKANO

         **** Don't distribute anyone except personal use only ****

                (C) Copyright 2007 OAA/ComputingSection

write mail from CFAD0::NAKANO on 2007-10-18 07:23:28(JST).

 



    P/2007 C2 (Catalina)

Epoch 2007 Sept. 17.0 TT = JDT 2454360.5  

T 2007 Sept. 4.61404 TT                                  Nakano

q   3.7796207            (2000.0)            P               Q

n   0.05289968     Peri.  179.45849     -0.09729918     -0.98389286

a   7.0280365      Node   276.11899     +0.91256085     -0.02806363

e   0.4622082      Incl.    8.67435     +0.39719713     -0.17654256

P  18.63 (+/- 0.18 day)

From 98 observations 2006 Oct. 19-2007 Mar. 12, mean residual 0".51.



NAKANO

         **** Don't distribute anyone except personal use only ****

                (C) Copyright 2007 OAA/ComputingSection

write mail from CFAD0::NAKANO on 2007-07-09 03:50:16(JST).

 



◎P/2007 C2の軌道です



 上尾の門田健一氏から2月18日の観測が報告されました.氏の観測は,我が国

